Regional Weather Roundup
Issued by NWS

Home | Current Version | Previous Version | Text Only | Print | Product List | Glossary On
Versions: 1 2 3 4 5 6 7 8 9 10 11 12 13 14 15 16 17 18 19 20 21 22 23 24 25 26 27 28 29 30 31 32 33 34 35 36 37 38 39 40 41 42 43 44 45 46 47 48 49 50
000
ASUS45 KBOU 202007
RWRCO

WEATHER ROUNDUP FOR COLORADO
NATIONAL WEATHER SERVICE DENVER/BOULDER CO
200 PM MDT SUN AUG 20 2017

NOTE: "FAIR" INDICATES FEW OR NO CLOUDS BELOW 12000 FEET WITH NO
SIGNIFICANT WEATHER AND/OR OBSTRUCTIONS TO VISIBILITY.

COZ001>005-013-030-031-202100-
...NORTHWEST COLORADO...

CITY           SKY/WX    TMP DP  RH WIND       PRES   REMARKS
CRAIG          FAIR      89  29  11 MISG      30.14F
HAYDEN         FAIR      83  33  16 NW9       30.18F
MEEKER         FAIR      87  33  14 SW13      30.15F
RABBIT EARS PA FAIR      61  36  39 MISG      30.51F
STEAMBOAT SPGS FAIR      83  32  16 SW5       30.20F
WALDEN         FAIR      77  28  16 SE3       30.31F
$$

COZ006>008-011-202100-
...WEST CENTRAL VALLEYS...

CITY           SKY/WX    TMP DP  RH WIND       PRES   REMARKS
GRAND JUNCTION FAIR      92  36  14 W5        30.04F
MONTROSE       FAIR      86  40  19 N7        30.13F
EAGLE          FAIR      84  32  15 VRB3      30.19F
RIFLE          FAIR      89  29  11 VRB7      30.08F
DELTA          FAIR      92  34  13 SW8       30.08F
NUCLA          FAIR      90  28  11 N9        30.15F
$$

COZ017>023-064>068-202100-
...SOUTHWEST COLORADO...

CITY           SKY/WX    TMP DP  RH WIND       PRES   REMARKS
DURANGO        FAIR      85  29  13 VRB7      30.17F
CORTEZ         FAIR      89  39  17 W9        30.12F
PAGOSA SPRINGS FAIR      80  31  16 W8        30.26F
TELLURIDE      FAIR      74  29  19 N3        30.39F
WOLF CREEK PAS NOT AVBL
$$

COZ009-010-012-014-032>034-037-058>063-202100-
...CENTRAL COLORADO...

CITY           SKY/WX    TMP DP  RH WIND       PRES   REMARKS
ASPEN          FAIR      82  28  14 N14       30.26F
BUENA VISTA    FAIR      79  26  14 W5        30.28S
COPPER MTN     PTSUNNY   61  27  27 SE12      30.63F
BERTHOUD PASS  FAIR      50  45  81 SE16G25   30.67F
COTTONWOOD PAS PTSUNNY   73  23  15 CALM      30.45S
GUNNISON       FAIR      78  36  21 VRB3      30.27F
KREMMLING      FAIR      81  28  15 NW16G24   30.27S
LEADVILLE      PTSUNNY   66  26  22 NE6       30.43F
MONARCH PASS   CLOUDY    61  32  33 S5        30.72F
SALIDA         FAIR      83  27  13 CALM      30.31F
SUNLIGHT       FAIR      64  28  25 SW3       30.55F
WILKERSON PASS CLOUDY    64  27  24 S3        30.59F
$$

COZ069>075-202100-
...SAN LUIS VALLEY/SANGRE DE CRISTO MOUNTAINS...

CITY           SKY/WX    TMP DP  RH WIND       PRES   REMARKS
ALAMOSA        FAIR      80  30  16 MISG      30.25F
DEL NORTE      FAIR      77  34  20 SE5       30.30F
LA VETA PASS   NOT AVBL
SAGUACHE       FAIR      79  32  18 S5        30.29F
$$

COZ035-036-038>040-202100-
...NORTHERN COLORADO FRONT RANGE...

CITY           SKY/WX    TMP DP  RH WIND       PRES   REMARKS
DENVER INTL AP FAIR      88  36  15 E10       30.12F
DMNS CITY PARK   N/A     85  31  14 E5G13     30.12S
AURORA         MOSUNNY   86  36  17 E6        30.14F
FRONT RANGE AP PTSUNNY   86  37  17 E7        30.14S
ERIE MUNI ARPT FAIR      87  30  12 N7        30.16S
BOULDER MUN AP FAIR      86  34  15 NE7       30.12F
CENTENNIAL     PTSUNNY   85  27  12 N8        30.15F
BROOMFIELD     PTSUNNY   86  34  15 E6        30.16S
FORT COLLINS   FAIR      86  49  27 SE14      30.11S
LONGMONT       FAIR      88  41  19 E5        30.13S
$$

COZ041-046-047-076>085-087-088-202100-
...PIKES PEAK/PALMER DIVIDE AND SOUTHERN FOOTHILLS...

CITY           SKY/WX    TMP DP  RH WIND       PRES   REMARKS
COLO. SPRINGS  PTSUNNY   83  43  24 E9        30.18R THUNDER
A. F. ACADEMY  PTSUNNY   83  37  19 NE7       30.18F
SCHRIEVER AFB  FAIR      82  41  23 NE9       30.18S HAZE
CHEYENNE MTN   SHOWER    72  52  49 W9        30.19S
ELLICOTT       NOT AVBL
FALCON         FAIR      77  37  23 NE8       30.24S
FORT CARSON    DRIZZLE   82  46  28 NE12      30.14S
LIMON          FAIR      87  43  21 VRB5      30.11F
MONUMENT HILL  FAIR      77  37  24 NE6       30.26S
CANON CITY     SUNNY     90  48  24 E10G17    30.08F
WALSENBURG     FAIR      90  34  13 NE12      30.13F
TRINIDAD       FAIR      89  38  16 CALM      30.11S
$$

COZ042>045-048>051-090-091-202100-
...NORTHEAST COLORADO...

CITY           SKY/WX    TMP DP  RH WIND       PRES   REMARKS
GREELEY ARPT   FAIR      85  49  28 NE9       30.08F
AKRON          FAIR      89  49  25 E12G17    30.06F
BURLINGTON     FAIR      89  57  33 E6        30.02F
WRAY           NOT AVBL
YUMA           FAIR      84  43  23 NE8       30.02F
STERLING       FAIR      86  63  45 E7        30.02F
HOLYOKE        FAIR      88  63  42 E8        30.01S
FORT MORGAN    FAIR      88  46  23 NE10G17   30.07F
$$

COZ086-089-092>099-202100-
...SOUTHEAST COLORADO...

CITY           SKY/WX    TMP DP  RH WIND       PRES   REMARKS
PUEBLO         FAIR      94  43  17 E9        30.02F
LA JUNTA       FAIR      93  52  24 NE8       30.00F
LAMAR          FAIR      90  57  32 CALM      29.95F
SPRINGFIELD      N/A     89  58  34 S14G21    30.01F
$$



USA.gov is the U.S. government's official web portal to all federal, state and local government web resources and services.